Regional Weather Roundup
Issued by NWS Sioux Falls, SD

Home | Current Version | Previous Version | Text Only | Print | Product List | Glossary Off
Versions: 1 2 3 4 5 6 7 8 9 10 11 12 13 14 15 16 17 18 19 20 21 22 23 24 25 26 27 28 29 30 31 32 33 34 35 36 37 38 39 40 41 42 43 44 45 46 47 48 49 50

000
ASUS43 KFSD 011502
RWRFSD

WEATHER ROUNDUP FOR SE SOUTH DAKOTA/SW MINNESOTA/NW IOWA
NATIONAL WEATHER SERVICE SIOUX FALLS SD
900 AM CST SUN FEB 01 2015

NOTE: "FAIR" INDICATES FEW OR NO CLOUDS BELOW 12,000 FEET WITH NO
SIGNIFICANT WEATHER AND OR OBSTRUCTIONS TO VISIBILITY.


SDZ038>040-050-052>070-011600-
SOUTHEAST SOUTH DAKOTA

CITY           SKY/WX    TMP DP  RH WIND       PRES   REMARKS
CHAMBERLAIN    NOT AVBL
HURON          LGT SNOW   0  -7  72 N21G32    30.36R WCI -22
MADISON        LGT SNOW   1   1 100 N24G30    30.21R WCI -22
MITCHELL       LGT SNOW   2  -3  80 N22G32    30.33R VSB 3/4 WCI -20
SIOUX FALLS    LGT SNOW   6   2  83 N22G31    30.18R VSB 3/4 WCI -15
WINNER         LGT SNOW   1  -5  75 NW22      30.34R WCI -21
YANKTON        CLOUDY   N/A N/A N/A NW26G32   30.22R
$$

MNZ071-072-080-081-089-090-097-098-011600-
SOUTHWEST MINNESOTA

CITY           SKY/WX    TMP DP  RH WIND       PRES   REMARKS
FAIRMONT       CLOUDY    16  10  79 N16G26    30.09R VSB 1   WCI   0
JACKSON        CLOUDY    14  10  85 N26G33    30.10R FOG     WCI  -6
LUVERNE        LGT SNOW  12   5  73 N20G31    30.15R WCI  -6
MARSHALL       CLOUDY     9  -2  61 N21G29    30.26R WCI -11
MONTEVIDEO     CLOUDY     9   1  72 NE17G23   30.31R WCI -10
PIPESTONE      LGT SNOW   7   1  78 NE23      30.16R VSB 1   WCI -14
REDWOOD FALLS  LGT SNOW  11   5  77 N13G24    30.24R WCI  -4
TRACY          LGT SNOW  10   7  86 N16G24    30.21R WCI  -7
WINDOM         SNOW      12   9  85 N28G33    30.14R VSB 1/2 WCI  -9
WORTHINGTON    CLOUDY    28   3  34 N28       30.12R VSB 1/2 WCI  13
$$

IAZ001>003-012>014-020>022-031-032-NEZ013-014-SDZ071-011600-
NORTHWEST IOWA

CITY           SKY/WX    TMP DP  RH WIND       PRES   REMARKS
ESTHERVILLE    FOG       14  11  87 N25G36    30.07R VSB 1/2 WCI  -5
SIOUX CITY     SNOW      17  12  80 N29G39    30.08R VSB 1/2 WCI  -2
SPENCER        SNOW      16  10  77 N29G38    30.06R VSB 1/2 WCI  -4
$$

ABBREVIATIONS USED IN REMARKS
   TC - TEMPERATURE IN CELSIUS
  WCI - WIND CHILL INDEX
   HX - HEAT INDEX
  VSB - VISIBILITY




USA.gov is the U.S. government's official web portal to all federal, state and local government web resources and services.